Regional Weather Roundup
Issued by NWS

Home | Current Version | Previous Version | Graphics & Text | Print | Product List | Glossary Off
Versions: 1 2 3 4 5 6 7 8 9 10 11 12 13 14 15 16 17 18 19 20 21 22 23 24 25 26 27 28 29 30 31 32 33 34 35 36 37 38 39 40 41 42 43 44 45 46 47 48 49 50

000
ASUS43 KLSX 290707
RWRMO

WEATHER SUMMARY FOR MISSOURI
NATIONAL WEATHER SERVICE SPRINGFIELD MO
200 AM CDT FRI JUL 29 2016

NOTE: "FAIR" INDICATES FEW OR NO CLOUDS BELOW 12,000 FEET WITH NO
       SIGNIFICANT WEATHER AND/OR OBSTRUCTIONS TO VISIBILITY.
       CURRENT SKY AND/OR WEATHER CONDITIONS ARE NOT AVAILABLE FOR
       CHILLICOTHE AND FARMINGTON.

MOZ001>031-035>038-043-044-053-054-290800-
...NORTHERN AND WESTERN MISSOURI...

CITY           SKY/WX    TMP DP  RH WIND       PRES   REMARKS
KANSAS CTY INT CLOUDY    74  65  73 NE7       29.99S
KANSAS C DTWN  CLOUDY    77  66  68 N7        29.97R
ST JOSEPH      CLOUDY    70  65  84 N3        29.99S
CHILLICOTHE      N/A     70  66  87 CALM      29.99S
KIRKSVILLE     CLEAR     65  62  90 NW5       29.98F

$$
MOZ066>068-077>081-088>096-101>105-290800-
...SOUTHWEST MISSOURI...

CITY           SKY/WX    TMP DP  RH WIND       PRES   REMARKS
SPRINGFIELD    CLEAR     72  69  90 S5        29.96F
JOPLIN         CLOUDY    73  69  87 NW3       29.97F

$$
MOZ032>034-039>042-045>050-055>058-069>072-290800-
...CENTRAL MISSOURI...

CITY           SKY/WX    TMP DP  RH WIND       PRES   REMARKS
COLUMBIA       CLOUDY    72  70  93 NE3       29.96F
JEFFERSON CITY CLOUDY    72  70  93 CALM      29.94F
ROLLA          CLEAR     69  67  93 CALM      29.95F
SEDALIA        CLOUDY    75  72  90 CALM      29.97F
WHITEMAN AFB   MOCLDY    73  73 100 NE3       29.94F
OSAGE BEACH    CLEAR     71  70  96 N3        29.96F

$$
MOZ051-052-059>065-290800-
...EAST CENTRAL MISSOURI...

CITY           SKY/WX    TMP DP  RH WIND       PRES   REMARKS
ST LOUIS INTL  PTCLDY    77  70  79 NW3       29.93F
SPIRIT OF STL  PTCLDY    74  72  93 CALM      29.92S
ST CHARLES     PTCLDY    75  70  84 NW5       29.92S

$$
MOZ072>076-082>087-097>100-106>115-290800-
...SOUTH CENTRAL AND SOUTHEAST MISSOURI...

CITY           SKY/WX    TMP DP  RH WIND       PRES   REMARKS
CAPE GIRARDEAU PTCLDY    74  71  91 CALM      29.90F
POPLAR BLUFF   MOCLDY    73  70  90 VRB3      29.92F
WEST PLAINS    CLEAR     69  66  90 W5        30.00R

$$


USA.gov is the U.S. government's official web portal to all federal, state and local government web resources and services.